Torna al catalogo

STARLINK-31808

AttivoComunicazioniVLEO
NORAD 59751·PAYLOAD·🇺🇸 United States

Lanciato May 13, 2024 da Cape Canaveral Space Force Station

Loading…

Prossimi Passaggi (prossime 24 ore)

TLE

AggiornatoSource: CelesTrak SupGP

Epoca: Sep 15, 2026, 02:34 UTC

1 59751C 24090X   26258.10743056 -.00042524  00000+0 -15405-2 0  2584
2 59751  42.9996 193.3560 0001092 266.3029 101.3038 15.27593543    16

Traccia STARLINK-31808 in tempo reale con AllMySat

Download on the App Store